Regional Weather Roundup
Issued by NWS Goodland, KS

Home | Current Version | Previous Version | Text Only | Print | Product List | Glossary On
Versions: 1 2 3 4 5 6 7 8 9 10 11 12 13 14 15 16 17 18 19 20 21 22 23 24 25 26 27 28 29 30 31 32 33 34 35 36 37 38 39 40 41 42 43 44 45 46 47 48 49 50
556
ASUS43 KGLD 280908
RWRGLD

GOODLAND FORECAST AREA HOURLY WEATHER ROUNDUP
NATIONAL WEATHER SERVICE GOODLAND KS
300 AM MDT FRI APR 28 2017

...OFFICIAL OBSERVATIONS...

CITY           SKY/WX    TMP DP  RH WIND       PRES   REMARKS
GOODLAND KS    CLEAR     36  35  96 W10       29.58S
HILL CITY KS   LGT RAIN  46  46 100 E9        29.59F
IMPERIAL NEB   LGT RAIN  42  40  92 E9        29.61R
MCCOOK NEB     LGT RAIN  44  43  96 E13       29.58F FOG
AKRON CO       CLOUDY    38  35  89 W5        29.59F
BURLINGTON CO  NOT AVBL
LIMON CO       CLEAR     28  28 100 N6        29.62S
$$

...UNOFFICIAL OBSERVATIONS...

CITY           SKY/WX    TMP DP  RH WIND       PRES   REMARKS
LENORA KS        N/A     44  32  63 MISG        N/A
NORTON KS      RAIN      45  39  81 E14G21    29.58F
SHARON SPRINGS   N/A     36  34  93 W5          N/A
KIT CARSON CO    N/A     35  31  85 MISG        N/A
$$




USA.gov is the U.S. government's official web portal to all federal, state and local government web resources and services.